| time (UTC) | temp C | wind direction | speed KPH | gust KPH | rain 1hr cm | rain 24hr cm | rain mn cm | humidity % | barometer mb |
| 20260509030109 | 4 | 226 | 0.0 | 1.6 | 0.00 | 0.00 | 0.00 | 82 | 1005.9 |
| 20260509024554 | 4 | 124 | 1.6 | 6.4 | 0.00 | 0.00 | 0.00 | 80 | 1006.0 |
| 20260509023052 | 4 | 156 | 1.6 | 8.0 | 0.00 | 0.00 | 0.00 | 77 | 1006.0 |
| 20260509021504 | 5 | 96 | 0.0 | 4.8 | 0.00 | 0.00 | 0.00 | 71 | 1006.2 |
| 20260509020056 | 5 | 182 | 3.2 | 12.9 | 0.00 | 0.00 | 0.00 | 68 | 1006.2 |
| 20260509014600 | 6 | 204 | 0.0 | 8.0 | 0.00 | 0.00 | 0.00 | 63 | 1006.1 |
| 20260509013102 | 6 | 162 | 4.8 | 11.3 | 0.00 | 0.00 | 0.00 | 62 | 1006.2 |
| 20260509011503 | 6 | 162 | 1.6 | 11.3 | 0.00 | 0.00 | 0.00 | 63 | 1006.4 |
| 20260509010056 | 6 | 232 | 4.8 | 17.7 | 0.00 | 0.00 | 0.00 | 65 | 1006.4 |
| 20260509004549 | 6 | 253 | 6.4 | 14.5 | 0.00 | 0.00 | 0.00 | 63 | 1006.5 |
| 20260509003134 | 6 | 241 | 6.4 | 14.5 | 0.00 | 0.00 | 0.00 | 62 | 1006.7 |
| 20260509001606 | 6 | 41 | 6.4 | 11.3 | 0.00 | 0.00 | 0.00 | 63 | 1006.9 |
| 20260509000106 | 6 | 84 | 6.4 | 14.5 | 0.00 | 0.00 | 0.00 | 61 | 1007.0 |
| 20260508234546 | 7 | 236 | 8.0 | 19.3 | 0.00 | 0.00 | 0.00 | 58 | 1007.2 |
| 20260508233058 | 7 | 194 | 8.0 | 16.1 | 0.00 | 0.00 | 0.00 | 56 | 1007.1 |
| 20260508231553 | 7 | 89 | 3.2 | 11.3 | 0.00 | 0.00 | 0.00 | 56 | 1007.3 |
| 20260508230043 | 7 | 193 | 6.4 | 17.7 | 0.00 | 0.00 | 0.00 | 58 | 1007.4 |
| 20260508224606 | 7 | 281 | 8.0 | 14.5 | 0.00 | 0.00 | 0.00 | 57 | 1007.7 |
| 20260508223046 | 6 | 195 | 6.4 | 20.9 | 0.00 | 0.00 | 0.00 | 57 | 1007.8 |
| 20260508221507 | 7 | 241 | 8.0 | 22.5 | 0.00 | 0.00 | 0.00 | 54 | 1007.8 |
| 20260508220055 | 7 | 151 | 4.8 | 16.1 | 0.00 | 0.00 | 0.00 | 53 | 1008.0 |
| 20260508214554 | 7 | 252 | 6.4 | 20.9 | 0.00 | 0.00 | 0.00 | 51 | 1008.1 |
| 20260508213046 | 7 | 103 | 4.8 | 16.1 | 0.00 | 0.00 | 0.00 | 54 | 1008.1 |
| 20260508211559 | 7 | 146 | 8.0 | 19.3 | 0.00 | 0.00 | 0.00 | 55 | 1008.4 |
| 20260508210048 | 7 | 214 | 6.4 | 16.1 | 0.00 | 0.00 | 0.00 | 48 | 1008.4 |
| 20260508204547 | 7 | 243 | 8.0 | 16.1 | 0.00 | 0.00 | 0.00 | 53 | 1008.5 |
| 20260508203001 | 7 | 223 | 6.4 | 16.1 | 0.00 | 0.00 | 0.00 | 50 | 1008.7 |
| 20260508201610 | 8 | 245 | 8.0 | 19.3 | 0.00 | 0.00 | 0.00 | 50 | 1008.7 |
| 20260508200108 | 7 | 219 | 6.4 | 14.5 | 0.00 | 0.00 | 0.00 | 49 | 1008.8 |
| 20260508193059 | 7 | 49 | 0.0 | 6.4 | 0.00 | 0.00 | 0.00 | 50 | 1009.0 |
| 20260508191504 | 7 | 247 | 3.2 | 6.4 | 0.00 | 0.00 | 0.00 | 49 | 1009.2 |
| 20260508190059 | 6 | 99 | 1.6 | 9.7 | 0.00 | 0.00 | 0.00 | 52 | 1009.4 |
| 20260508184608 | 6 | 79 | 6.4 | 12.9 | 0.00 | 0.00 | 0.00 | 52 | 1009.6 |
| 20260508183058 | 6 | 117 | 4.8 | 9.7 | 0.00 | 0.00 | 0.00 | 52 | 1009.8 |
| 20260508181503 | 6 | 167 | 3.2 | 8.0 | 0.00 | 0.00 | 0.00 | 52 | 1010.1 |
| 20260508180054 | 6 | 71 | 3.2 | 9.7 | 0.00 | 0.00 | 0.00 | 53 | 1010.3 |
| 20260508174602 | 6 | 99 | 4.8 | 9.7 | 0.00 | 0.00 | 0.00 | 53 | 1010.5 |
| 20260508173043 | 6 | 42 | 1.6 | 11.3 | 0.00 | 0.00 | 0.00 | 56 | 1010.8 |
| 20260508171601 | 5 | 36 | 1.6 | 9.7 | 0.00 | 0.00 | 0.00 | 57 | 1011.0 |
| 20260508170046 | 5 | 293 | 1.6 | 6.4 | 0.00 | 0.00 | 0.00 | 59 | 1011.2 |
| 20260508164504 | 5 | 44 | 1.6 | 11.3 | 0.00 | 0.00 | 0.00 | 59 | 1011.5 |
| 20260508163116 | 5 | 51 | 1.6 | 4.8 | 0.00 | 0.00 | 0.00 | 59 | 1011.8 |
| 20260508161558 | 4 | 82 | 0.0 | 4.8 | 0.00 | 0.00 | 0.00 | 61 | 1012.0 |
| 20260508160052 | 4 | 67 | 1.6 | 4.8 | 0.00 | 0.00 | 0.00 | 63 | 1012.1 |
| 20260508154552 | 3 | 86 | 1.6 | 3.2 | 0.00 | 0.00 | 0.00 | 65 | 1012.2 |
| 20260508153057 | 2 | 63 | 0.0 | 3.2 | 0.00 | 0.00 | 0.00 | 69 | 1012.5 |
| 20260508151554 | 1 | 67 | 0.0 | 0.0 | 0.00 | 0.00 | 0.00 | 72 | 1012.6 |
| 20260508150046 | 1 | 66 | 0.0 | 0.0 | 0.00 | 0.00 | 0.00 | 74 | 1012.8 |
| 20260508144503 | 1 | 66 | 0.0 | 0.0 | 0.00 | 0.00 | 0.00 | 73 | 1013.0 |
| 20260508143052 | 0 | 63 | 0.0 | 0.0 | 0.00 | 0.00 | 0.00 | 78 | 1013.2 |
| 20260508141547 | -1 | 219 | 0.0 | 0.0 | 0.00 | 0.00 | 0.00 | 81 | 1013.4 |
| 20260508140044 | -1 | 219 | 0.0 | 0.0 | 0.00 | 0.00 | 0.00 | 83 | 1013.6 |
| 20260508134601 | -2 | 219 | 0.0 | 0.0 | 0.00 | 0.00 | 0.00 | 85 | 1013.9 |
| 20260508133049 | -2 | 219 | 0.0 | 0.0 | 0.00 | 0.00 | 0.00 | 85 | 1013.9 |
| 20260508131505 | -2 | 229 | 0.0 | 0.0 | 0.00 | 0.00 | 0.00 | 85 | 1014.1 |
| 20260508130107 | -2 | 229 | 0.0 | 0.0 | 0.00 | 0.00 | 0.00 | 83 | 1014.1 |
| 20260508124548 | -1 | 229 | 0.0 | 0.0 | 0.00 | 0.00 | 0.00 | 82 | 1014.5 |
| 20260508123046 | -1 | 229 | 0.0 | 0.0 | 0.00 | 0.00 | 0.00 | 82 | 1014.5 |
| 20260508121559 | -1 | 229 | 0.0 | 1.6 | 0.00 | 0.00 | 0.00 | 80 | 1014.7 |
| 20260508120049 | -1 | 231 | 0.0 | 1.6 | 0.00 | 0.00 | 0.00 | 79 | 1014.8 |
| 20260508114600 | 0 | 11 | 0.0 | 1.6 | 0.00 | 0.00 | 0.00 | 76 | 1015.0 |
| 20260508113056 | 0 | 22 | 0.0 | 3.2 | 0.00 | 0.00 | 0.00 | 76 | 1015.2 |
| 20260508111550 | 0 | 77 | 0.0 | 1.6 | 0.00 | 0.00 | 0.00 | 74 | 1015.4 |
| 20260508110133 | 0 | 77 | 0.0 | 3.2 | 0.00 | 0.00 | 0.00 | 73 | 1015.6 |
| 20260508104603 | 0 | 61 | 0.0 | 1.6 | 0.00 | 0.00 | 0.00 | 74 | 1015.6 |
| 20260508103057 | 0 | 62 | 0.0 | 6.4 | 0.00 | 0.00 | 0.00 | 73 | 1015.8 |
| 20260508101552 | 0 | 32 | 0.0 | 6.4 | 0.00 | 0.00 | 0.00 | 73 | 1015.9 |
| 20260508100057 | 1 | 115 | 0.0 | 0.0 | 0.00 | 0.00 | 0.00 | 69 | 1015.9 |
| 20260508094558 | 1 | 207 | 0.0 | 3.2 | 0.00 | 0.00 | 0.00 | 68 | 1015.9 |
| 20260508093056 | 2 | 237 | 0.0 | 4.8 | 0.00 | 0.00 | 0.00 | 67 | 1016.0 |
| 20260508091559 | 2 | 218 | 0.0 | 3.2 | 0.00 | 0.00 | 0.00 | 67 | 1016.0 |
| 20260508090109 | 2 | 141 | 0.0 | 3.2 | 0.00 | 0.00 | 0.00 | 67 | 1016.1 |
| 20260508084548 | 2 | 193 | 0.0 | 6.4 | 0.00 | 0.00 | 0.00 | 66 | 1016.2 |
| 20260508083045 | 2 | 212 | 1.6 | 8.0 | 0.00 | 0.00 | 0.00 | 67 | 1016.3 |
| 20260508081613 | 2 | 214 | 1.6 | 14.5 | 0.00 | 0.00 | 0.00 | 67 | 1016.6 |
| 20260508080054 | 2 | 211 | 1.6 | 8.0 | 0.00 | 0.00 | 0.00 | 68 | 1016.5 |
| 20260508074545 | 2 | 169 | 0.0 | 8.0 | 0.00 | 0.00 | 0.00 | 68 | 1016.9 |
| 20260508073101 | 2 | 231 | 1.6 | 4.8 | 0.00 | 0.00 | 0.00 | 69 | 1017.0 |
| 20260508071549 | 2 | 264 | 0.0 | 3.2 | 0.00 | 0.00 | 0.00 | 67 | 1016.9 |
| 20260508070046 | 3 | 138 | 0.0 | 6.4 | 0.00 | 0.00 | 0.00 | 67 | 1017.0 |
| 20260508064557 | 3 | 113 | 1.6 | 6.4 | 0.00 | 0.00 | 0.00 | 66 | 1017.1 |
| 20260508063053 | 3 | 129 | 0.0 | 11.3 | 0.00 | 0.00 | 0.00 | 65 | 1017.1 |
| 20260508061548 | 3 | 212 | 1.6 | 9.7 | 0.00 | 0.00 | 0.00 | 64 | 1017.2 |
| 20260508060058 | 3 | 150 | 1.6 | 4.8 | 0.00 | 0.00 | 0.00 | 63 | 1017.3 |
| 20260508054638 | 4 | 111 | 0.0 | 9.7 | 0.00 | 0.00 | 0.00 | 62 | 1017.2 |
| 20260508053148 | 4 | 176 | 4.8 | 17.7 | 0.00 | 0.00 | 0.00 | 61 | 1017.3 |
| 20260508051502 | 5 | 226 | 3.2 | 12.9 | 0.00 | 0.00 | 0.00 | 61 | 1017.3 |
| 20260508050057 | 5 | 223 | 4.8 | 11.3 | 0.00 | 0.00 | 0.00 | 61 | 1017.3 |
| 20260508044559 | 5 | 124 | 6.4 | 22.5 | 0.00 | 0.00 | 0.00 | 60 | 1017.4 |
| 20260508043059 | 5 | 217 | 8.0 | 14.5 | 0.00 | 0.00 | 0.00 | 60 | 1017.5 |
| 20260508041601 | 6 | 245 | 3.2 | 19.3 | 0.00 | 0.00 | 0.00 | 59 | 1017.6 |
| 20260508040054 | 6 | 239 | 4.8 | 17.7 | 0.00 | 0.00 | 0.00 | 57 | 1017.4 |
| 20260508034506 | 6 | 220 | 6.4 | 29.0 | 0.00 | 0.00 | 0.00 | 55 | 1017.5 |
| 20260508033100 | 6 | 199 | 8.0 | 16.1 | 0.00 | 0.00 | 0.00 | 55 | 1017.6 |
| 20260508031601 | 6 | 258 | 6.4 | 22.5 | 0.00 | 0.00 | 0.00 | 55 | 1017.8 |